Showing default

ESSA 2 (OT-2), 2091

Orbit data source: Space-Track

ESSA 2 (OT-2), 2091 is a payload satellite owned by ESSA (US) in SSO that was launched on Mon, 28 Feb 1966 UTC via a THOR DELTA E launch vehicle from the Air Force Eastern Test Range (AFETR). Payload-class satellites include a variety of spacecraft equipped with specific instruments for various scientific and technological missions. These include communications satellites like Starlink; space stations such as the ISS; scientific satellites like the Hubble; Earth observation satellites from companies like Planet Labs, Umbra, and HawkEye 360; GPS; miniature CubeSats for education and research; and military/defense satellites.

Loading next visibility...
Identifier
2091, 1966-016A
Orbit
SSO
Country
Flag of USUS
Related business
Manufacturer
RCA/East Windsor
Mission
Non-operational spacecraft
Bus & Motor
TIROS I, Unknown motor
Mass
130 kg wet, 130 kg dry
Launch date (UTC)
1966-02-28 (60 years ago)
Launch vehicle
THOR DELTA E
Launch site
Air Force Eastern Test Range (AFETR)
Object type
Payload
Rocket body
Debris
Shape & HBR
Unknown
Radar Cross Section
Medium (>0.1 m² and <1 m²)

Expand to show TLE details & history
Last TLE update: 9 hours ago

TLE from 9 hours ago
0 ESSA 2 (OT-2)
1  2091U 66016A   26119.70979360 -.00000031  00000-0  66797-4 0  9995
2  2091 101.2361  30.1402 0038906 355.5974  60.5687 12.69430178787478
Epoch: 2026-04-29T17:02Z
TLE epoch observation values (Epoch: 2026-04-29T17:02:06.167Z)
Latitude
55.02251°
Longitude
-99.46449°
Altitude
1,378.439 km
Speed
7.182 km/s
True Right ascension
00h 54m 54s
True Declination
54° 52' 26"
Sunlit
Object was in daylight at epoch
Visualization orbit readout
Latitude
Unknown
Longitude
Unknown
Altitude
Unknown
Speed
Unknown
Apparent Right ascension
Unknown
Apparent Declination
Unknown
Sunlit
N/A
Visualization observer readout
Local Sidereal Time
09:31:37
Azimuth
Unknown
Elevation
Unknown
Doppler factor
Unknown
Orbital elements
Apogee altitude
1,411.944 km
Perigee altitude
1,351.563 km
Semi-major axis
7,759.891 km
Eccentricity
0.00389
Inclination
101.2361°
RAAN
30.1402°
Arg. of periapsis
355.5974°
True anomaly
60.95792°
Mean anomaly
60.5687°
Eccentric anomaly
60.76322°
Mean motion
3.17512 °/min
Orbital period
113.38 mins
BSTAR
0.000066797
Loading maneuver chart data...
Computing Atmospheric mass density...
Loading historical data...
Loading historical data...
Loading historical data...
Loading historical data...
Loading historical data...
Loading historical data...
Loading historical data...
Other satellites on launch #16 in the year 1966 (1966-02-28 UTC)

Documentation

Showing up to 5 results
|